Time,TemperatureF,DewpointF,PressureIn,WindDirection,WindDirectionDegrees,WindSpeedMPH,WindSpeedGustMPH,Humidity,HourlyPrecipIn,Conditions,Clouds,dailyrainin,SoftwareType,DateUTC
2013-09-22 00:00:00,6.5,0.0,20.01,ENE,68,0.0,2.0,0,0.00,,,0.00,VWS V14.01,2013-09-22 07:00:00,
2013-09-22 00:30:00,6.0,0.0,20.01,ENE,68,0.0,3.0,0,0.00,,,0.00,VWS V14.01,2013-09-22 07:30:00,
2013-09-22 01:00:00,5.8,0.0,20.01,ENE,68,0.0,2.0,0,0.00,,,0.00,VWS V14.01,2013-09-22 08:00:00,
2013-09-22 01:30:00,6.0,0.0,20.01,ENE,68,0.0,3.0,0,0.00,,,0.00,VWS V14.01,2013-09-22 08:30:00,
2013-09-22 02:00:00,6.1,0.0,20.01,ENE,68,0.0,4.0,0,0.00,,,0.00,VWS V14.01,2013-09-22 09:00:00,
2013-09-22 02:30:00,5.8,0.0,20.01,ENE,68,0.0,3.0,0,0.00,,,0.00,VWS V14.01,2013-09-22 09:30:00,
2013-09-22 03:00:00,5.2,0.0,20.01,ENE,68,0.0,1.0,0,0.00,,,0.00,VWS V14.01,2013-09-22 10:00:00,
2013-09-22 03:30:00,4.7,0.0,20.01,ENE,68,0.0,0.0,0,0.00,,,0.00,VWS V14.01,2013-09-22 10:30:00,
2013-09-22 04:00:00,5.2,0.0,20.01,ENE,68,0.0,2.0,0,0.00,,,0.00,VWS V14.01,2013-09-22 11:00:00,
2013-09-22 04:30:00,4.7,0.0,20.01,ENE,68,0.0,2.0,0,0.00,,,0.00,VWS V14.01,2013-09-22 11:30:00,
2013-09-22 05:00:00,3.7,0.0,20.01,ENE,68,0.0,2.0,0,0.00,,,0.00,VWS V14.01,2013-09-22 12:00:00,
2013-09-22 05:30:00,3.7,0.0,20.01,ENE,68,0.0,2.0,0,0.00,,,0.00,VWS V14.01,2013-09-22 12:30:00,
2013-09-22 06:00:00,3.5,0.0,20.01,ENE,68,0.0,1.0,0,0.00,,,0.00,VWS V14.01,2013-09-22 13:00:00,
2013-09-22 06:30:00,3.5,0.0,20.01,ENE,68,0.0,2.0,0,0.00,,,0.00,VWS V14.01,2013-09-22 13:30:00,
2013-09-22 07:00:00,3.0,0.0,20.01,ENE,68,0.0,1.0,0,0.00,,,0.00,VWS V14.01,2013-09-22 14:00:00,
2013-09-22 07:30:00,2.8,0.0,20.01,ENE,68,0.0,1.0,0,0.00,,,0.00,VWS V14.01,2013-09-22 14:30:00,
2013-09-22 08:00:00,4.3,0.0,20.07,ENE,68,0.0,2.0,0,0.00,,,0.00,VWS V14.01,2013-09-22 15:00:00,
2013-09-22 08:30:00,5.4,0.0,20.07,ENE,68,0.0,1.0,0,0.00,,,0.00,VWS V14.01,2013-09-22 15:30:00,
2013-09-22 09:00:00,7.7,0.0,20.07,ENE,68,0.0,0.0,0,0.00,,,0.00,VWS V14.01,2013-09-22 16:00:00,
2013-09-22 09:30:00,11.1,0.0,20.07,ENE,68,0.0,0.0,0,0.00,,,0.00,VWS V14.01,2013-09-22 16:30:00,
2013-09-22 10:00:00,9.7,0.0,20.07,ENE,68,0.0,0.0,0,0.00,,,0.00,VWS V14.01,2013-09-22 17:00:00,
2013-09-22 10:30:00,9.9,0.0,20.07,West,270,1.0,8.0,0,0.00,,,0.00,VWS V14.01,2013-09-22 17:30:00,
2013-09-22 11:00:00,10.2,0.0,20.07,WSW,248,2.0,9.0,0,0.00,,,0.00,VWS V14.01,2013-09-22 18:00:00,
2013-09-22 11:30:00,9.3,0.0,20.14,SW,225,3.0,9.0,0,0.00,,,0.00,VWS V14.01,2013-09-22 18:30:00,
2013-09-22 12:00:00,9.5,0.0,20.13,South,180,3.0,12.0,0,0.00,,,0.00,VWS V14.01,2013-09-22 19:00:00,
2013-09-22 12:30:00,10.2,0.0,20.13,WSW,248,4.0,10.0,0,0.00,,,0.00,VWS V14.01,2013-09-22 19:30:00,
2013-09-22 13:00:00,11.1,0.0,20.13,WSW,248,2.0,8.0,0,0.00,,,0.00,VWS V14.01,2013-09-22 20:00:00,
2013-09-22 13:30:00,10.7,0.0,20.13,WSW,248,2.0,8.0,0,0.00,,,0.00,VWS V14.01,2013-09-22 20:30:00,
2013-09-22 14:00:00,10.9,0.0,20.13,SW,225,3.0,9.0,0,0.00,,,0.00,VWS V14.01,2013-09-22 21:00:00,
2013-09-22 14:30:00,9.9,0.0,20.13,SW,225,3.0,10.0,0,0.00,,,0.00,VWS V14.01,2013-09-22 21:30:00,
2013-09-22 15:00:00,9.0,0.0,20.13,SW,225,4.0,12.0,0,0.00,,,0.00,VWS V14.01,2013-09-22 22:00:00,
2013-09-22 15:30:00,7.9,0.0,20.13,SW,225,4.0,11.0,0,0.00,,,0.00,VWS V14.01,2013-09-22 22:30:00,
2013-09-22 16:00:00,6.3,0.0,20.13,SW,225,4.0,10.0,0,0.00,,,0.00,VWS V14.01,2013-09-22 23:00:00,
2013-09-22 16:30:00,5.8,0.0,20.13,WSW,248,4.0,11.0,0,0.00,,,0.00,VWS V14.01,2013-09-22 23:30:00,
2013-09-22 17:00:00,4.5,0.0,20.13,SW,225,3.0,10.0,0,0.00,,,0.00,VWS V14.01,2013-09-23 00:00:00,
2013-09-22 17:30:00,3.7,0.0,20.13,SW,225,3.0,9.0,0,0.00,,,0.00,VWS V14.01,2013-09-23 00:30:00,
2013-09-22 18:00:00,2.0,0.0,20.13,WSW,248,2.0,7.0,0,0.00,,,0.00,VWS V14.01,2013-09-23 01:00:00,
2013-09-22 18:30:00,1.8,0.0,20.13,SSW,202,1.0,5.0,0,0.00,,,0.00,VWS V14.01,2013-09-23 01:30:00,
2013-09-22 19:00:00,0.7,0.0,20.13,SE,135,1.0,5.0,0,0.00,,,0.00,VWS V14.01,2013-09-23 02:00:00,
2013-09-22 19:30:00,-0.6,0.0,20.13,South,180,0.0,5.0,0,0.00,,,0.00,VWS V14.01,2013-09-23 02:30:00,
2013-09-22 20:00:00,-2.0,0.0,20.13,SSE,158,0.0,2.0,0,0.00,,,0.00,VWS V14.01,2013-09-23 03:00:00,
2013-09-22 20:30:00,-2.6,0.0,20.13,East,90,1.0,5.0,0,0.00,,,0.00,VWS V14.01,2013-09-23 03:30:00,
2013-09-22 21:00:00,-3.1,0.0,20.13,East,90,0.0,4.0,0,0.00,,,0.00,VWS V14.01,2013-09-23 04:00:00,
2013-09-22 21:30:00,-5.6,0.0,20.13,East,90,0.0,4.0,0,0.00,,,0.00,VWS V14.01,2013-09-23 04:30:00,
2013-09-22 22:00:00,-7.2,0.0,20.13,East,90,0.0,1.0,0,0.00,,,0.00,VWS V14.01,2013-09-23 05:00:00,
2013-09-22 22:30:00,-8.9,0.0,20.13,North,0,0.0,4.0,0,0.00,,,0.00,VWS V14.01,2013-09-23 05:30:00,
2013-09-22 23:00:00,-9.8,0.0,20.13,North,0,0.0,2.0,0,0.00,,,0.00,VWS V14.01,2013-09-23 06:00:00,
2013-09-22 23:30:00,-10.7,0.0,20.13,North,0,1.0,4.0,0,0.00,,,0.00,VWS V14.01,2013-09-23 06:30:00,